RH
11 10 10 9 8 7 7 8 12 18 27 33 33 29 22 18 17 18 22 28 34 40 43 43 42 38 33 29 27 26 27 28 29 31 34 40 48 56 63 68 71 72 71 72 73 75 77 80 81 82 83 83 82 81 79 77 74 70 67 64 61 58 54 50 47 44 42 41 39 38 37 35 33 29 26 23 20 17 15 14 12 11 10 10 9 9
17 16 15 14 13 13 12 12 13 13 15 17 18 19 19 25 33 42 51 58 61 62 60 58 54 51 48 45 42 41 41 41 42 46 52 60 66 72 75 76 76 75 75 76 78 80 83 83 83 83 82 81 79 77 74 70 67 64 61 57 54 50 47 45 43 42 40 39 38 36 33 29 26 23 20 18 16 15 13 12 11 11 10 9 9 8
42 37 33 30 27 26 25 24 23 22 23 25 28 33 41 51 59 64 67 67 67 67 67 66 65 63 62 58 54 52 51 53 58 64 72 76 79 81 81 80 80 79 80 81 82 83 84 83 82 80 79 76 73 70 67 63 60 57 53 50 47 45 43 42 41 40 38 36 33 29 26 24 21 19 17 16 15 13 12 12 11 10 10 9 9 8
68 63 58 54 51 48 46 43 41 39 40 43 47 53 61 68 71 71 71 72 72 73 74 75 74 72 65 59 57 58 63 69 75 80 83 83 83 83 83 83 84 84 83 83 83 82 81 80 78 75 72 69 66 62 59 56 52 49 47 45 43 43 42 40 38 36 33 30 27 24 22 20 19 17 16 15 14 13 12 11 11 10 9 9 8 8
78 77 76 74 72 69 65 61 59 57 57 60 64 68 70 72 73 73 73 75 77 78 77 75 71 67 61 61 66 72 78 82 84 85 85 85 84 84 84 84 84 83 83 82 81 79 77 74 71 69 66 63 59 55 51 48 46 44 43 42 41 39 38 35 33 30 27 25 23 21 20 18 17 16 15 14 13 13 12 11 10 10 9 9 8 8
81 81 80 80 78 76 74 72 69 68 67 67 68 68 69 70 72 73 75 76 75 73 69 65 63 64 68 74 79 82 84 84 85 85 84 84 84 84 83 83 82 81 80 78 76 74 71 69 66 62 58 54 50 46 43 41 40 39 38 37 35 33 31 29 27 25 24 22 21 19 18 17 16 15 15 14 13 12 11 11 10 10 9 8 8 8
80 80 79 79 77 76 75 73 70 66 62 59 56 56 59 61 64 65 65 65 64 64 64 67 71 75 80 82 82 82 82 83 84 84 84 83 83 82 81 80 78 77 75 73 70 68 65 61 57 51 46 43 40 38 36 36 35 34 33 32 30 29 27 26 25 23 22 21 19 18 17 17 16 15 14 13 12 12 11 10 10 9 9 8 8 8
78 77 78 77 76 75 72 69 64 60 54 49 45 44 44 47 51 54 57 60 65 70 74 79 81 82 82 80 80 80 81 82 83 83 82 81 80 79 77 75 73 71 69 67 63 59 54 48 43 39 36 35 34 33 33 33 32 31 30 29 28 27 26 25 23 22 21 20 19 18 17 16 15 14 14 13 12 11 11 10 10 9 9 8 8 8
73 74 75 75 74 70 66 58 51 45 40 37 35 36 40 47 55 62 69 75 78 81 83 83 82 80 78 78 78 80 81 81 80 79 77 75 73 71 68 67 65 62 59 55 50 45 41 38 35 34 33 32 32 32 32 32 31 30 29 28 27 26 25 24 23 21 20 19 18 18 17 16 15 14 13 12 11 11 10 10 9 9 9 9 9 10
65 68 67 64 59 52 45 37 31 28 30 36 44 53 62 70 75 79 82 83 84 83 83 82 81 79 78 77 78 78 78 76 74 70 67 63 60 56 53 50 47 44 42 39 37 35 34 34 34 33 33 33 32 32 32 31 30 29 28 27 26 25 24 23 22 21 20 19 18 17 16 15 14 13 12 12 11 10 10 10 9 9 10 10 11 11
52 48 43 37 34 32 30 31 34 40 50 61 70 77 82 83 84 85 85 84 82 82 81 81 80 79 78 76 74 72 69 64 59 54 50 46 43 40 36 33 31 30 30 30 31 32 33 33 33 33 33 33 32 32 31 30 29 28 27 26 25 24 23 21 20 19 18 17 17 16 15 14 13 12 12 11 10 10 10 10 10 10 11 12 13 14
41 42 44 47 49 51 54 60 67 73 78 82 84 85 85 84 84 84 84 82 81 80 79 78 76 74 72 68 64 59 53 47 41 38 36 34 32 30 28 27 27 27 28 29 31 32 32 32 32 32 32 32 31 31 30 29 28 27 26 25 24 22 21 20 19 18 17 16 15 14 13 13 12 11 11 11 10 10 11 11 12 12 13 15 16 17
49 60 71 76 79 80 81 82 83 84 85 85 85 85 84 83 83 83 82 81 79 77 76 74 70 66 61 56 50 44 38 34 32 31 31 30 29 29 28 28 28 29 30 30 31 31 32 32 32 32 31 31 31 30 29 28 27 26 25 23 22 21 20 19 18 17 15 15 14 13 12 12 11 11 11 11 11 11 12 13 14 15 16 17 19 20
52 64 75 81 84 85 85 85 85 85 85 84 84 83 83 82 82 82 81 78 76 74 71 67 63 58 51 45 39 35 32 31 31 31 32 32 31 30 29 30 30 31 32 32 33 33 32 32 32 31 31 30 30 29 28 27 26 25 24 22 21 20 18 18 16 15 14 13 13 12 12 11 11 11 11 12 12 13 14 15 16 17 19 20 22 23
58 66 74 81 84 85 85 85 85 84 84 83 83 83 82 82 81 80 77 74 72 69 67 61 55 47 40 36 35 34 33 33 34 35 35 35 33 32 31 32 33 34 34 35 34 34 33 32 32 31 30 29 28 27 26 26 25 23 22 21 20 18 17 16 15 14 13 13 12 12 11 11 11 12 12 13 14 15 16 17 18 20 21 23 25 26
78 80 82 84 84 84 83 82 82 83 83 83 83 82 82 81 79 77 74 71 68 66 61 53 45 38 34 34 34 35 34 35 36 38 39 38 36 34 34 35 36 37 36 36 35 34 33 32 31 30 29 28 27 26 25 24 23 22 21 19 18 17 16 15 14 13 12 12 11 11 11 11 12 12 13 14 15 16 17 18 20 22 24 26 28 30
85 85 85 85 84 83 82 82 83 84 83 83 82 82 81 79 77 75 71 69 65 60 52 44 38 35 34 34 35 36 36 37 39 40 40 40 38 37 36 37 38 38 37 36 35 34 33 31 30 29 27 26 25 24 23 22 21 20 19 18 17 16 14 14 13 12 12 11 11 11 11 11 12 12 13 14 15 17 18 20 22 24 26 28 30 33
83 83 82 83 82 82 82 83 83 83 83 82 82 81 80 77 75 72 69 64 58 50 43 39 37 36 36 35 35 35 37 38 39 41 41 41 40 39 38 38 39 38 37 36 34 33 31 30 28 27 26 25 23 22 21 20 19 18 17 16 15 14 13 12 12 11 11 11 11 11 11 12 12 13 14 15 17 18 20 22 24 26 28 31 34 37
80 79 80 80 81 82 83 83 83 83 83 82 81 79 77 75 72 69 65 58 51 45 41 40 39 38 37 36 36 36 36 37 39 41 42 42 41 40 39 39 38 37 36 35 33 31 29 27 26 25 24 23 22 21 20 18 17 16 15 14 13 12 12 11 11 11 11 11 11 12 12 13 14 15 17 18 20 22 24 26 29 31 34 36 40 43
77 77 78 80 82 83 84 83 83 82 82 81 79 77 74 72 69 65 59 52 47 44 41 40 39 38 36 35 35 35 35 36 39 41 43 42 42 40 39 38 37 36 34 32 30 28 26 25 24 23 22 21 20 18 17 16 15 14 13 12 12 11 11 11 11 12 12 13 14 15 17 18 20 22 23 26 28 30 32 35 37 39 42 45 47 50
78 80 82 83 84 84 83 83 82 81 80 79 78 76 73 69 64 58 53 48 45 41 38 38 37 36 34 33 33 33 35 37 39 41 41 41 40 38 37 35 34 33 31 29 27 25 24 23 22 21 19 18 17 16 15 14 13 12 12 12 12 12 13 14 15 17 18 20 22 24 26 27 30 32 34 35 37 39 41 43 44 46 47 48 49 51
83 83 83 83 83 83 83 83 82 81 79 78 76 73 68 63 57 52 48 44 41 38 37 36 35 34 32 32 33 34 35 37 38 39 39 38 37 35 34 32 31 30 28 26 25 23 21 20 19 18 17 15 14 13 13 13 13 13 14 15 17 18 20 22 24 26 29 31 33 35 36 38 39 40 41 42 43 43 43 42 42 41 40 39 39 38
84 84 83 83 83 83 83 82 81 79 77 74 70 66 60 55 51 46 42 38 36 35 35 35 34 34 33 34 34 35 35 36 36 36 36 35 34 33 31 29 28 27 26 24 22 20 18 17 16 15 14 13 13 13 14 16 17 19 21 23 25 27 30 32 34 36 37 39 40 41 41 41 41 40 39 38 36 34 32 30 27 25 23 22 20 20
84 83 83 83 83 82 81 80 78 75 71 66 62 57 53 48 43 39 36 35 35 35 35 35 36 35 35 34 34 34 35 35 34 34 34 32 31 30 29 27 26 24 23 20 18 17 15 14 14 14 14 15 16 18 20 22 25 27 29 30 32 34 35 36 37 37 37 37 37 36 35 33 31 29 27 24 21 19 17 15 13 12 11 10 10 9
83 83 83 82 81 80 78 75 71 67 62 58 54 50 46 42 39 38 37 37 37 37 37 38 38 37 36 34 33 33 34 33 33 32 32 30 29 28 26 25 23 21 19 17 15 14 14 15 16 17 18 20 22 24 26 27 28 29 30 30 30 30 29 29 29 28 27 25 24 22 20 18 17 15 13 11 10 10 10 9 10 10 10 10 10 10
83 82 81 79 77 75 71 67 63 59 55 51 47 43 41 39 39 38 38 38 37 37 38 38 38 37 36 34 33 33 33 32 31 31 30 28 26 25 24 21 19 17 15 14 14 14 16 18 19 21 22 23 23 24 24 23 23 22 21 20 19 18 17 16 15 14 13 11 10 10 9 8 8 8 8 8 9 10 11 12 13 14 15 15 14 14
80 79 77 74 71 67 63 60 56 52 49 45 43 41 40 40 39 38 38 38 37 36 36 37 37 36 35 35 34 33 32 31 30 29 27 25 23 21 19 17 15 13 12 12 14 16 18 19 20 20 19 18 17 16 15 13 12 10 10 9 8 7 6 6 5 5 5 5 5 5 5 6 7 8 9 10 12 14 16 18 19 19 20 19 18 16
74 72 68 64 60 57 54 51 48 45 43 41 40 39 39 39 39 39 38 36 34 34 34 34 35 35 35 34 33 32 32 30 28 26 24 21 19 16 14 13 11 11 11 12 14 15 16 16 14 13 11 10 8 7 6 5 5 4 4 4 3 3 3 3 3 3 3 3 4 4 5 6 8 9 10 13 15 18 20 22 24 24 23 22 20 19
61 58 54 51 48 45 43 41 40 39 38 38 38 38 38 38 37 36 35 32 31 31 32 32 33 33 33 33 31 30 29 27 24 21 19 16 14 12 11 10 10 10 11 11 11 11 10 9 7 6 5 4 4 3 3 3 3 3 3 3 3 3 3 3 3 3 3 3 4 4 5 6 8 10 11 14 18 21 24 26 28 28 27 26 24 24
45 43 40 39 38 38 37 37 37 38 38 39 39 39 38 36 34 32 30 29 29 30 31 32 32 32 31 30 29 27 24 22 19 16 14 12 11 10 10 10 10 9 9 8 6 5 4 4 3 3 3 3 3 3 3 3 3 3 3 3 3 3 3 3 3 3 3 3 3 4 4 6 7 10 12 16 20 24 28 30 32 32 31 31 31 31
37 37 36 38 38 39 40 40 41 41 42 41 40 38 36 33 31 29 28 29 30 31 32 32 31 30 29 26 24 22 19 16 14 11 10 10 9 9 9 8 7 6 5 4 3 3 3 3 3 3 3 3 3 3 3 3 3 3 3 3 3 3 3 3 3 3 3 3 3 3 4 5 7 10 13 17 22 26 31 34 35 36 36 37 38 39
41 41 42 43 44 44 45 44 44 42 41 38 35 33 30 28 27 27 28 30 32 33 33 31 29 27 25 22 19 16 13 11 10 9 8 9 8 8 6 5 4 3 3 3 3 3 3 3 3 3 3 3 3 3 3 3 3 3 3 3 3 3 3 3 3 3 3 3 3 3 4 5 8 11 14 19 23 28 32 35 38 39 40 41 42 43
47 47 47 46 45 44 43 41 38 35 32 29 27 26 25 25 26 28 30 31 32 32 31 29 26 22 19 16 13 11 9 8 8 8 7 7 6 5 4 3 3 3 3 3 4 4 4 4 4 4 4 3 3 3 3 3 3 3 3 3 3 3 3 3 3 3 3 3 3 4 5 7 9 12 16 20 24 28 32 35 38 40 41 42 43 43
47 46 44 42 40 38 35 32 29 27 25 24 24 25 26 28 30 31 32 32 31 29 26 23 20 16 13 11 10 8 8 7 7 7 6 5 4 3 3 3 3 4 4 4 4 4 4 4 4 4 4 4 3 3 3 3 3 3 3 3 3 3 3 3 3 3 3 3 4 5 6 9 11 15 18 21 24 27 31 34 36 38 39 40 41 42
43 41 39 36 34 31 28 26 25 24 24 26 27 29 31 32 32 32 31 29 26 23 20 17 14 11 9 9 9 8 8 7 6 5 4 3 3 3 3 4 4 4 5 5 5 5 5 5 4 4 4 3 3 3 3 3 3 3 3 3 3 3 3 3 3 3 3 3 4 5 7 10 13 16 19 22 25 27 30 32 34 35 36 38 39 41
39 37 35 32 30 27 26 25 26 27 29 31 32 33 34 33 32 30 27 24 21 18 14 12 10 9 8 8 8 8 7 6 4 3 3 3 3 3 4 4 5 5 6 6 5 5 5 4 4 4 3 3 3 3 3 3 2 3 3 3 3 3 3 3 3 3 3 3 3 4 6 8 11 15 18 22 25 28 30 32 34 35 37 38 40 43
36 35 32 29 28 27 27 29 31 33 35 35 35 34 33 30 27 25 21 18 15 13 10 9 8 8 8 8 8 7 5 4 3 3 3 3 4 4 5 5 6 6 6 6 6 5 4 4 4 3 3 3 3 2 2 2 2 2 3 3 3 4 4 4 4 4 3 3 3 3 4 6 9 12 17 21 25 29 32 35 37 39 41 43 44 46
34 33 31 30 30 31 33 35 37 37 37 36 34 31 28 25 22 19 16 13 11 10 9 9 9 9 9 8 6 5 3 3 3 3 3 4 4 5 6 7 7 7 7 6 5 5 4 4 3 3 3 3 2 2 2 2 2 2 2 3 3 4 4 5 5 5 5 4 4 4 4 5 7 10 13 18 23 28 33 36 39 41 43 44 45 45
34 34 33 34 36 38 39 40 39 37 35 33 30 26 23 20 17 15 12 11 10 9 10 10 10 9 8 6 4 3 3 3 3 4 4 5 6 7 8 8 8 8 7 6 5 5 4 4 3 3 3 2 2 2 2 2 2 2 2 2 3 4 4 5 6 6 7 6 6 6 5 5 6 7 9 13 17 20 24 28 32 34 36 37 37 36
37 37 38 40 41 41 40 39 37 34 31 27 24 21 18 16 14 12 11 10 11 11 11 11 9 8 5 4 3 3 3 3 4 4 5 6 7 8 9 9 9 8 7 6 6 5 5 4 4 3 3 2 2 2 2 2 2 2 2 2 3 3 4 4 5 6 7 7 7 7 7 6 6 7 7 8 9 11 13 15 18 21 23 24 25 24
42 42 43 42 41 39 37 35 32 28 25 22 19 17 14 13 12 11 12 13 14 14 13 10 7 5 3 3 3 3 3 4 4 5 6 8 9 10 10 10 10 9 8 7 6 6 5 5 4 4 3 3 2 2 2 2 2 2 2 2 3 3 3 4 4 5 6 6 7 7 7 8 8 8 9 9 9 9 10 11 12 13 15 16 16 15
45 44 43 41 39 36 33 30 26 23 20 18 15 13 12 12 13 14 16 17 17 15 11 8 5 3 3 3 3 4 4 5 6 7 9 10 11 12 12 12 11 10 8 8 7 6 6 5 5 4 4 3 3 3 3 2 2 2 2 2 3 3 3 3 4 4 5 5 6 6 7 8 8 9 10 11 11 12 12 13 13 14 14 14 15 15
44 42 40 37 34 31 28 25 22 19 17 14 13 12 12 14 16 18 20 19 16 12 8 5 3 3 3 4 4 5 6 7 8 10 11 13 14 14 14 13 12 11 9 9 8 7 6 6 5 5 5 4 4 4 3 3 3 3 3 3 3 3 3 3 3 4 4 4 5 6 6 7 8 9 10 10 11 12 13 14 16 17 18 20 21 23
41 38 36 33 30 27 24 21 18 15 13 12 12 13 16 18 20 21 20 16 12 8 5 4 3 4 5 6 6 7 8 9 11 12 14 15 16 16 16 15 13 12 11 10 9 8 8 7 6 6 6 5 5 5 4 4 4 4 3 3 3 3 3 3 3 3 3 4 4 4 5 6 6 7 8 9 10 11 12 14 16 18 20 22 25 27
38 35 32 29 26 23 19 17 14 12 11 12 15 17 20 22 22 20 16 11 8 5 4 4 5 6 7 8 9 10 10 12 14 16 17 18 19 19 18 17 16 14 13 12 11 10 9 9 8 7 7 7 6 6 6 6 6 5 5 5 4 4 4 3 3 3 3 3 3 3 4 4 5 5 5 6 7 7 9 10 12 14 16 18 21 23
35 31 28 24 20 17 14 12 12 12 13 17 20 23 24 23 20 16 11 7 5 4 4 6 7 9 10 11 12 13 15 16 18 19 20 21 21 21 20 19 18 17 15 14 13 13 12 11 10 9 9 9 9 8 8 8 8 8 7 7 7 6 6 6 5 5 4 4 4 4 4 4 4 4 4 4 4 5 6 7 8 9 10 12 13 15
28 24 20 16 13 12 11 12 14 16 19 23 25 26 24 20 15 10 7 5 5 5 7 8 10 11 13 14 16 17 19 21 22 23 24 24 24 23 22 21 20 19 19 18 17 16 15 15 14 13 12 12 12 12 12 12 12 11 11 11 11 10 10 10 9 9 9 8 7 7 7 6 6 5 5 5 5 4 4 5 5 6 6 7 8 9
17 14 12 10 10 11 13 17 20 24 26 27 27 24 20 15 10 7 5 5 6 8 10 11 13 14 16 18 20 22 24 26 27 28 29 28 27 26 25 24 23 23 23 22 21 21 20 19 19 19 18 17 17 16 17 17 17 17 17 17 17 17 16 16 16 16 15 14 14 13 12 11 10 10 10 9 8 7 7 6 6 6 7 7 7 7
11 10 10 11 13 17 21 26 29 30 31 28 24 19 14 10 7 6 6 8 10 11 13 15 16 18 20 22 24 27 29 31 32 33 34 33 31 30 28 27 27 27 27 27 26 26 25 25 25 25 25 24 24 23 23 23 23 24 24 25 25 25 25 25 25 25 25 24 23 23 21 20 19 18 18 17 15 14 13 12 11 11 12 12 11 11
11 13 15 18 22 27 31 34 34 33 29 24 19 14 9 7 7 8 10 12 14 15 17 18 20 22 24 26 29 32 34 36 37 38 38 37 35 34 32 32 32 32 32 32 32 32 31 31 30 31 31 31 31 31 31 31 31 32 33 33 34 34 34 35 35 36 36 36 35 35 34 33 32 31 30 29 27 26 25 24 23 22 22 22 21 21
19 22 25 29 33 36 38 37 34 30 24 18 13 10 7 8 9 11 14 16 17 19 20 21 23 26 29 32 35 37 39 41 42 42 41 40 39 38 36 36 36 37 37 38 38 37 37 36 36 36 37 37 38 38 38 38 39 39 39 41 42 43 43 43 45 46 46 47 47 47 47 47 46 46 45 43 42 40 39 39 38 37 37 36 35 34
Wind_Speed
27 28 28 28 28 27 27 27 27 27 28 29 29 29 29 28 28 28 28 29 30 32 33 35 37 39 40 41 41 42 43 44 45 46 47 48 49 50 51 52 53 54 55 56 57 58 59 61 61 62 61 61 59 58 56 54 52 51 50 49 49 49 50 50 51 52 52 53 54 55 56 57 57 58 59 60 60 61 62 62 63 63 64 64 64 64
25 25 25 26 25 25 25 25 25 25 25 25 26 26 26 26 26 26 27 29 30 32 34 36 38 39 40 40 41 42 43 44 46 47 48 49 50 51 52 53 54 55 56 57 58 59 60 60 59 58 57 56 54 52 51 50 49 48 48 49 49 50 51 51 52 53 54 55 55 56 57 58 58 59 60 60 61 62 62 62 63 63 64 64 64 64
23 23 23 24 23 23 23 23 23 23 23 23 24 24 24 25 26 28 29 31 33 35 36 38 39 41 42 43 43 44 45 46 48 50 51 52 53 54 55 55 56 57 58 58 59 59 59 58 56 54 52 51 49 49 48 48 48 48 49 49 50 51 52 53 54 54 55 56 56 57 58 58 59 60 60 61 61 62 62 63 63 63 64 64 64 64
22 22 22 22 22 22 23 23 23 23 23 24 24 25 25 27 29 31 33 35 36 37 39 40 41 42 44 44 45 46 48 49 51 53 54 55 56 56 57 57 57 58 58 57 57 56 55 54 52 50 49 48 47 47 47 48 48 49 50 51 52 52 53 54 55 55 56 57 57 58 59 59 60 60 61 61 62 62 63 63 63 64 64 64 64 63
21 21 20 21 22 23 24 24 24 25 25 25 26 27 28 30 32 34 35 37 38 39 41 42 43 43 44 45 46 48 50 51 52 53 54 54 55 55 56 56 56 56 55 54 53 52 51 49 48 47 47 47 47 47 47 48 49 50 51 52 53 54 54 55 55 56 57 57 58 59 59 60 60 61 62 62 62 63 63 63 64 64 64 63 63 63
21 20 20 21 22 24 25 25 26 26 26 27 28 29 30 32 33 35 36 37 39 40 41 42 43 44 45 46 47 48 49 50 50 51 51 51 52 52 52 52 51 51 50 49 48 47 46 46 46 46 46 47 47 48 48 49 50 51 52 53 54 55 55 56 56 57 57 58 59 59 60 61 61 62 62 63 63 63 64 64 64 64 63 63 63 62
22 21 21 22 23 25 26 26 27 27 27 28 29 30 31 32 33 34 35 36 38 39 41 42 43 44 44 44 44 45 46 47 47 48 48 48 48 48 47 47 46 45 45 45 44 44 45 45 46 46 47 47 48 48 49 50 51 52 53 54 54 55 56 56 57 57 58 58 59 60 60 61 62 62 63 63 64 64 64 64 64 64 63 62 62 61
23 23 23 24 25 25 26 26 27 27 28 28 29 29 30 31 32 33 35 36 38 40 41 41 41 41 40 40 41 42 43 44 45 45 45 45 44 44 43 43 43 43 43 43 43 44 45 45 46 47 48 48 49 50 50 51 52 53 54 54 55 55 56 56 57 58 58 59 60 61 61 62 62 63 63 64 64 64 64 64 63 63 62 61 61 60
24 24 24 24 25 26 26 26 27 27 27 28 28 29 30 31 33 34 36 38 38 39 38 38 37 37 37 38 39 39 40 40 41 41 41 41 41 41 41 42 42 42 42 43 43 44 45 46 47 48 49 49 50 51 51 52 53 53 54 55 55 56 56 57 58 59 59 60 61 61 62 63 63 63 64 64 64 64 64 63 63 62 61 60 59 58
23 23 24 24 24 25 25 26 26 26 27 27 28 30 31 32 34 35 36 36 36 35 35 34 34 35 36 36 36 36 36 37 37 38 39 39 40 40 41 41 41 41 42 42 43 44 45 46 47 48 49 50 51 51 52 52 53 54 55 55 56 57 57 58 59 59 60 61 62 62 63 63 64 64 64 64 64 64 63 63 62 61 60 59 58 57
21 21 22 22 22 23 24 25 25 26 27 29 30 31 32 32 32 32 33 32 32 32 33 33 33 34 34 34 34 34 34 35 35 37 38 39 39 40 40 41 41 41 42 42 43 44 45 46 47 48 49 50 51 51 52 53 54 55 55 56 57 57 58 59 60 61 61 62 63 63 64 64 64 64 64 64 64 63 62 62 61 60 59 58 57 56
18 18 19 20 22 23 25 26 27 28 29 29 29 30 29 29 30 30 31 31 31 32 32 32 32 32 32 32 32 33 33 34 35 36 37 39 39 40 41 41 41 42 42 43 44 44 45 46 47 48 49 50 51 52 52 53 54 55 56 56 57 58 59 59 60 61 62 62 63 63 64 64 64 64 64 63 63 62 61 60 60 59 58 57 57 56
15 16 18 21 24 25 26 27 27 27 27 26 26 26 27 28 29 30 31 31 32 31 31 31 31 32 32 31 31 31 32 33 34 36 38 39 40 41 41 42 42 43 44 44 45 46 46 47 48 49 50 50 51 52 53 54 54 55 56 57 57 58 59 60 60 61 61 62 62 62 63 63 63 62 62 62 61 61 60 59 58 58 57 57 57 56
16 17 18 21 23 25 25 24 23 23 24 25 26 27 29 30 31 32 32 32 31 31 31 30 30 31 31 31 31 31 32 33 34 36 38 40 41 42 42 43 43 44 45 46 47 47 48 49 50 50 51 52 52 53 54 54 55 56 57 57 58 59 59 60 61 61 61 62 62 62 62 61 61 61 61 60 60 59 59 58 58 57 57 57 57 57
17 18 19 21 22 23 23 23 24 25 27 28 29 30 31 31 32 32 31 31 31 31 30 30 30 31 32 31 31 31 32 33 34 36 39 41 42 43 43 44 45 46 46 48 48 49 50 51 51 52 53 53 54 55 55 56 57 57 58 59 59 60 61 61 61 62 62 62 62 61 61 61 60 60 60 59 59 58 58 57 57 57 57 57 57 57
19 20 21 22 23 24 25 27 28 29 30 31 32 32 32 32 32 32 31 31 30 30 30 29 30 31 32 33 32 32 33 34 35 37 39 41 43 43 44 45 46 47 48 49 50 51 52 53 54 54 55 56 56 57 57 58 59 59 60 61 61 62 62 62 62 62 62 62 62 62 61 61 60 60 59 59 58 58 58 57 57 57 57 57 57 58
20 21 22 23 25 27 28 29 30 31 31 32 32 32 32 32 32 32 31 31 30 30 29 29 30 31 32 33 34 33 34 35 36 38 40 42 43 44 45 46 47 49 50 51 52 53 54 55 56 56 57 58 58 59 60 60 61 61 62 62 63 63 63 64 64 64 64 63 63 63 62 62 61 60 60 59 59 58 58 58 58 58 58 58 58 58
22 23 25 26 28 29 30 31 31 32 32 32 32 32 32 32 31 31 30 29 29 28 29 29 30 31 32 33 34 34 35 36 37 39 41 43 44 45 46 47 49 50 51 53 54 55 56 57 57 58 59 60 60 61 62 62 63 63 64 64 65 65 65 65 65 65 65 65 64 64 63 63 62 62 61 60 60 60 60 59 59 59 59 59 60 60
25 26 27 28 29 31 31 32 32 32 31 31 31 31 31 30 30 29 28 28 28 28 29 30 31 32 32 33 34 35 35 37 38 40 42 44 45 46 47 48 50 51 53 54 55 56 57 58 59 60 60 61 62 62 63 64 64 65 65 66 66 67 67 67 67 67 66 66 66 65 65 64 64 63 63 62 62 61 61 61 61 61 61 61 61 61
26 27 28 29 30 31 32 32 32 31 31 31 31 30 29 29 28 28 28 28 28 29 30 31 32 33 33 34 35 36 37 38 39 41 43 44 46 47 48 49 51 52 54 55 56 57 58 59 60 61 62 62 63 64 64 65 66 66 67 67 67 68 68 68 68 67 67 67 67 66 66 65 65 64 64 64 63 63 63 63 63 63 62 62 62 62
27 28 29 30 31 31 31 31 31 31 31 30 30 28 28 27 27 27 27 28 29 30 31 32 33 34 35 35 36 37 38 39 41 42 44 45 47 48 49 50 51 52 54 55 57 58 59 60 61 62 63 64 64 65 65 66 66 67 67 68 68 68 68 68 68 67 67 67 67 67 66 66 66 65 65 65 64 64 64 64 63 63 63 63 63 62
29 29 30 30 30 30 30 30 30 30 29 28 27 26 26 26 26 26 27 28 29 31 32 33 34 36 36 37 38 39 40 41 42 43 44 46 47 49 49 50 51 53 54 55 57 58 60 61 62 63 64 64 65 65 66 66 66 67 67 67 67 67 67 67 68 68 67 67 67 67 67 67 66 66 66 65 65 65 64 64 63 63 62 62 62 61
29 29 30 30 30 29 29 28 28 27 27 26 25 25 25 25 25 26 27 29 30 31 33 35 36 37 38 39 39 40 41 42 43 45 46 47 48 49 50 51 52 53 55 56 57 59 60 62 63 64 64 65 65 65 66 66 66 67 67 67 67 68 68 68 68 68 68 68 68 67 67 67 66 66 65 65 64 64 63 62 62 61 60 60 59 59
28 28 27 27 27 26 26 25 24 24 23 23 22 23 23 24 25 27 28 29 31 32 34 36 37 38 39 40 41 42 43 44 45 46 47 48 50 51 52 52 53 54 55 57 58 59 60 62 63 64 64 65 65 65 66 66 67 67 67 68 68 68 68 68 68 68 68 68 67 67 66 66 65 65 64 63 62 61 60 59 58 58 57 57 56 56
24 24 24 23 23 22 22 21 21 20 20 21 21 22 23 25 27 28 29 30 32 33 35 36 38 39 40 41 42 43 44 45 46 47 48 50 51 52 53 54 54 55 56 57 58 59 60 62 63 64 64 65 65 66 66 67 67 68 68 68 68 68 68 68 68 68 67 67 66 66 65 64 63 62 61 60 58 57 56 55 54 53 53 52 52 52
20 20 20 19 19 18 18 18 18 19 19 21 22 24 25 27 28 29 30 32 33 34 35 37 38 40 41 42 43 43 44 46 47 48 49 50 52 53 54 55 55 55 56 57 58 59 60 62 63 64 65 65 66 66 67 67 67 68 68 68 68 68 68 68 67 67 66 65 64 63 62 61 60 58 57 55 54 52 51 50 49 49 48 48 48 47
17 17 17 17 17 17 18 18 19 19 21 22 23 25 26 27 29 30 31 33 34 35 36 37 38 40 41 42 43 44 45 46 47 48 50 51 52 53 54 54 55 55 56 57 58 59 61 62 64 64 65 65 66 66 66 66 67 67 67 67 67 67 66 66 65 64 63 62 61 60 59 57 55 54 52 50 48 47 46 45 44 44 43 43 43 43
16 16 16 17 17 17 18 19 20 21 22 23 24 26 27 28 29 31 32 33 34 35 36 37 38 39 40 41 43 44 45 46 47 48 50 50 51 52 53 54 55 55 56 57 58 59 60 61 62 63 63 63 63 64 64 64 64 65 65 64 64 64 63 62 61 61 60 58 57 56 54 52 50 48 47 45 43 42 41 40 40 40 39 39 38 38
16 16 16 16 17 17 18 19 20 21 23 24 25 27 28 29 30 31 33 34 35 35 36 37 38 39 40 41 42 43 44 45 46 48 49 50 50 52 53 54 55 55 56 56 56 57 58 58 59 59 60 60 60 60 60 61 61 61 61 61 60 59 59 58 57 56 55 54 52 51 49 47 45 44 42 40 39 38 37 37 36 36 35 34 33 32
15 15 16 16 17 18 19 20 21 22 24 25 26 28 29 30 31 32 33 33 34 35 36 37 38 38 39 41 42 43 44 45 46 47 48 49 50 51 53 54 54 54 54 53 52 52 52 53 54 55 56 56 56 57 57 57 57 56 56 56 55 54 54 53 52 51 50 49 47 46 44 43 41 39 38 37 36 35 34 34 33 32 31 29 28 28
15 16 16 17 18 19 20 21 22 23 24 25 27 28 29 30 31 32 32 33 34 34 35 36 38 39 40 40 41 42 43 44 45 46 47 49 50 51 52 52 52 51 49 48 48 48 48 49 51 52 53 54 54 54 53 53 52 52 51 50 50 49 48 47 46 46 45 44 43 41 40 39 37 36 35 34 33 33 32 31 30 29 27 26 25 24
16 16 17 18 19 20 21 22 23 24 25 26 27 28 29 30 31 31 32 33 33 34 35 36 37 39 40 40 41 42 43 44 45 46 47 49 50 49 48 47 46 46 45 45 46 46 47 48 49 51 52 52 52 52 51 50 49 48 47 46 45 44 43 42 41 40 39 39 38 37 36 35 34 33 32 32 31 31 30 29 28 27 25 24 24 23
17 17 18 19 20 21 22 23 23 24 25 26 27 28 29 30 30 31 32 32 33 34 35 36 37 38 39 40 41 42 43 44 45 46 47 47 46 45 43 42 42 42 43 44 45 47 48 49 50 51 51 51 51 51 50 49 48 46 44 43 41 40 39 37 36 35 34 33 33 32 31 31 30 30 30 30 29 29 29 28 27 26 25 24 24 23
17 18 19 20 20 21 22 23 24 25 26 27 28 29 29 30 30 31 32 32 33 34 35 36 37 38 39 40 41 42 43 44 45 45 44 43 41 39 38 38 39 41 42 44 45 47 48 49 50 51 51 51 51 51 50 49 47 45 43 41 39 37 35 34 32 31 30 29 28 27 27 27 27 27 27 27 28 28 28 27 27 26 25 25 24 24
17 18 19 20 22 23 24 25 26 26 27 28 28 29 29 30 31 31 32 33 33 34 35 36 36 37 38 40 41 42 43 44 43 41 39 37 36 36 36 37 38 40 42 43 45 47 48 49 50 50 50 51 50 50 50 48 47 45 42 40 38 36 33 31 30 28 27 25 24 24 23 23 23 24 24 25 25 26 26 26 26 26 26 25 25 25
18 19 20 21 23 24 25 25 26 27 27 28 28 29 30 30 31 32 32 33 33 34 34 35 36 37 38 40 41 42 42 41 39 36 34 34 34 35 36 37 38 39 41 43 44 46 47 48 49 49 49 50 50 50 49 48 46 44 42 40 38 35 33 31 29 27 26 24 23 22 21 21 21 21 22 22 23 24 24 25 25 25 25 25 25 25
19 20 21 22 23 24 24 25 26 26 27 28 28 29 30 30 31 32 32 33 33 34 34 35 36 37 39 40 40 40 38 36 34 32 32 32 33 34 36 36 38 39 41 42 44 45 46 46 47 47 48 48 48 48 48 46 45 44 42 40 38 35 33 31 30 28 26 25 24 22 21 21 20 20 20 20 21 22 23 23 24 24 24 24 24 24
19 20 21 21 22 23 23 24 25 25 26 27 28 29 30 30 31 31 32 32 33 33 34 35 36 37 38 38 37 36 33 32 31 30 31 31 32 33 35 36 37 38 40 41 43 43 44 44 45 45 46 46 46 46 45 45 44 43 42 40 38 36 34 32 31 29 28 26 25 23 22 21 20 19 19 19 19 20 20 21 22 22 23 23 24 24
18 19 19 20 21 21 22 23 24 25 26 27 28 29 29 30 30 31 31 32 33 33 34 36 37 37 37 36 34 32 30 29 29 30 30 31 32 33 34 35 36 38 39 40 41 42 42 43 43 43 44 44 44 44 44 43 43 42 41 40 38 37 35 33 32 30 29 27 26 24 23 21 20 19 18 17 17 18 18 19 19 20 21 22 22 22
17 18 18 19 20 21 22 23 24 25 26 27 27 28 28 29 29 30 31 32 33 34 35 36 36 35 34 32 30 29 29 29 29 29 30 30 31 32 33 35 36 36 37 38 39 40 41 41 42 42 43 43 44 44 44 43 42 42 41 40 39 38 36 34 33 31 30 29 27 26 24 22 21 19 18 17 16 16 16 17 17 18 18 19 19 20
17 17 18 19 20 21 22 23 24 25 25 26 26 26 27 28 28 29 31 32 33 35 36 36 34 32 30 29 28 28 28 28 28 29 29 30 31 32 33 34 34 35 36 37 38 39 39 40 41 42 43 44 45 46 45 45 44 44 43 41 40 39 38 37 35 34 32 31 29 28 26 24 23 21 20 18 17 17 16 16 16 16 16 16 16 17
17 18 19 20 21 22 23 24 24 24 24 24 25 25 26 27 28 29 30 32 34 35 35 34 32 31 29 28 28 28 28 28 28 28 29 30 31 31 32 32 33 34 35 35 37 38 39 40 41 42 44 45 46 47 48 48 47 47 46 44 43 43 42 41 39 38 36 35 33 32 30 28 27 25 23 22 20 19 18 17 16 16 15 15 16 16
18 19 20 21 22 22 23 23 23 23 23 23 23 24 25 26 27 29 30 32 33 33 33 32 31 30 30 29 29 28 28 27 28 28 29 30 30 30 31 31 32 33 33 34 35 37 38 40 41 42 44 46 47 48 49 49 50 50 49 49 48 47 46 45 44 43 42 40 39 37 36 34 32 31 29 27 26 24 22 21 20 18 18 17 17 17
19 20 21 21 21 21 21 21 21 22 22 22 23 24 25 26 27 29 30 31 31 31 30 30 29 29 29 29 29 29 28 28 28 28 29 29 29 29 30 30 31 32 32 33 35 36 38 39 41 42 44 45 47 48 49 50 51 51 52 52 52 51 50 50 49 49 48 46 45 44 42 41 39 38 36 35 33 31 29 27 26 24 23 21 20 20
20 20 20 20 20 20 20 20 20 21 21 22 23 24 25 26 28 29 29 29 29 28 28 28 28 28 28 29 30 30 29 29 29 29 29 29 29 29 29 30 30 31 32 33 34 35 37 38 40 41 43 44 46 47 48 50 51 51 52 53 53 53 53 53 53 52 51 51 50 49 48 47 46 44 42 41 39 37 36 34 32 30 29 27 26 24
19 19 19 19 19 19 20 20 20 21 21 22 23 24 26 27 28 28 28 27 27 26 26 26 26 27 28 29 29 29 29 29 29 29 29 29 29 29 29 29 30 30 31 32 33 35 36 38 39 40 42 43 44 46 47 48 49 50 51 52 53 53 53 54 54 54 53 53 52 52 51 51 50 48 46 45 44 42 41 39 38 36 34 33 31 30
19 19 19 19 19 19 19 20 20 21 22 23 24 25 26 26 27 26 26 25 25 25 25 25 25 26 27 28 29 29 29 29 29 29 29 29 29 29 29 29 29 30 31 32 33 34 35 37 38 40 41 42 43 45 46 47 48 49 50 51 52 52 52 53 53 53 54 53 53 53 53 52 51 50 49 48 47 45 44 43 42 40 39 38 36 35
18 18 18 18 19 19 20 20 21 22 22 23 24 25 25 26 25 25 24 24 24 24 24 24 25 26 27 27 27 27 28 28 28 29 29 29 30 30 30 30 30 30 31 31 32 34 35 36 38 39 40 41 42 44 45 46 47 48 49 50 51 51 52 52 52 53 53 53 53 53 53 53 52 51 50 50 49 47 46 45 45 44 43 42 41 39
18 18 18 18 19 19 20 21 21 22 23 24 24 25 25 24 24 23 23 23 23 23 23 24 25 26 27 27 26 26 26 27 27 28 28 29 29 29 30 30 30 31 31 32 33 34 35 36 37 38 39 41 42 43 45 46 47 48 49 49 50 50 51 51 52 52 53 53 53 53 53 53 52 52 51 51 50 49 48 47 47 46 46 45 44 43
18 18 18 19 19 20 20 21 22 23 23 24 24 24 24 23 23 23 22 22 22 23 23 24 25 25 26 25 25 25 25 25 26 26 27 27 28 28 29 29 30 31 31 32 33 34 35 36 37 38 39 40 42 43 44 45 46 47 48 49 49 50 51 51 51 52 52 52 52 53 53 52 52 52 52 51 51 50 50 49 48 48 47 47 46 45
19 19 19 20 20 21 21 22 23 23 24 24 23 23 23 22 22 22 22 22 22 23 23 24 24 24 24 24 24 24 24 24 24 25 25 25 26 26 27 28 29 30 31 32 33 34 35 36 36 37 39 40 42 43 44 45 46 47 48 48 49 50 50 51 51 51 52 52 52 52 52 52 52 52 52 51 51 51 51 50 50 49 49 48 48 47
Wind_Direction
257 257 258 259 259 260 260 259 257 255 253 255 259 263 267 269 271 273 275 277 278 279 280 280 279 279 279 278 278 279 280 280 280 281 281 281 281 281 282 283 283 284 285 285 285 285 284 283 282 281 280 279 279 278 278 278 279 280 282 284 286 288 289 290 290 290 291 291 291 290 290 289 288 288 287 287 287 287 287 287 287 287 287 288 288 288
258 259 259 260 260 260 260 260 260 259 258 259 260 263 265 268 271 274 277 278 279 279 280 280 280 280 280 280 280 280 280 280 279 279 280 280 280 281 282 283 283 284 284 284 284 283 282 281 280 279 278 277 278 278 279 281 283 285 288 289 290 291 291 292 292 292 292 291 291 290 289 288 287 287 287 287 287 287 287 287 288 288 288 288 288 289
262 261 261 261 261 261 261 260 260 259 259 259 261 263 266 269 273 275 277 277 277 277 278 279 280 280 281 281 281 281 281 281 281 281 281 282 282 282 283 283 283 282 282 282 281 280 279 278 278 278 278 279 280 282 284 287 289 291 292 293 293 293 293 293 292 292 291 290 289 288 288 287 287 287 287 287 287 287 288 288 288 288 288 289 289 289
263 264 264 264 264 263 261 260 258 258 258 258 261 264 267 270 272 273 273 273 274 275 277 278 278 279 279 280 281 282 283 283 284 284 284 284 284 283 283 282 281 280 280 279 278 278 278 278 278 280 281 283 286 288 290 292 293 294 294 294 294 293 293 292 291 290 289 289 288 287 287 287 287 287 287 287 287 288 288 288 288 288 289 289 289 289
263 266 267 268 267 264 262 260 258 258 258 259 260 262 264 265 266 267 268 270 272 274 275 276 276 277 279 280 282 284 284 285 285 285 285 284 283 282 281 280 279 279 278 278 278 279 279 281 283 285 287 289 291 293 294 295 295 295 295 294 293 292 291 290 289 289 288 288 288 287 287 287 287 287 288 288 288 288 288 288 289 289 289 289 289 289
259 262 264 265 265 264 262 260 259 258 258 258 259 259 260 261 263 265 267 269 271 273 274 275 276 278 280 283 284 285 286 286 285 285 284 284 283 281 280 279 279 279 279 280 281 282 284 286 288 290 292 294 295 296 296 296 296 295 294 293 291 291 290 289 289 288 288 288 288 288 288 288 288 288 288 288 288 289 289 289 289 289 289 289 289 289
256 257 258 259 261 262 262 262 262 262 262 262 262 263 264 265 266 268 269 271 272 274 275 277 279 281 283 284 286 286 287 287 286 285 284 284 283 282 281 281 281 282 283 284 286 288 290 292 293 295 296 297 297 297 297 296 294 293 292 291 290 290 289 289 289 288 288 288 288 288 288 288 288 288 288 289 289 289 289 289 289 290 289 290 289 289
256 256 256 257 260 262 264 265 267 267 268 269 269 269 269 270 271 272 273 275 276 277 279 280 281 283 285 286 287 288 288 287 286 285 285 284 284 284 284 284 285 286 288 290 292 294 295 297 298 298 299 299 298 297 295 294 292 291 291 290 290 289 289 289 289 289 289 289 288 288 288 288 289 289 289 289 289 289 290 290 290 290 290 290 289 289
257 257 258 259 261 264 267 268 270 271 272 272 273 273 273 274 275 277 278 279 280 281 281 282 283 285 287 289 289 289 289 288 287 286 287 287 287 288 288 289 290 292 294 296 298 299 300 300 300 299 298 297 296 294 293 292 291 291 290 290 290 290 290 289 289 289 289 289 289 289 289 289 289 289 290 290 290 290 290 291 291 290 290 290 290 289
257 259 261 262 264 266 269 270 271 272 272 273 274 275 276 278 279 280 281 281 282 283 284 285 287 289 291 292 291 291 289 288 288 289 290 291 291 292 293 294 296 298 300 301 301 301 300 299 298 297 296 295 294 293 292 292 291 291 291 291 291 291 290 290 290 290 290 290 290 290 290 290 290 290 291 291 291 291 291 291 291 291 290 290 290 289
258 261 264 266 268 269 270 272 272 273 274 276 277 279 280 281 282 282 282 283 284 285 287 289 290 292 292 293 293 291 290 290 290 292 293 294 295 296 297 299 300 302 302 301 300 299 297 296 295 294 293 293 293 292 292 292 292 292 292 292 292 292 292 292 292 291 291 291 291 292 292 292 292 292 292 292 292 292 292 292 291 291 290 290 290 289
259 263 268 272 274 275 275 275 276 277 279 280 282 283 284 285 285 286 286 286 287 288 290 291 292 293 293 293 292 292 292 292 294 295 297 298 298 299 300 301 302 302 301 299 298 296 295 294 293 293 293 293 293 292 292 292 292 292 292 292 293 293 293 293 292 293 293 293 293 293 293 293 293 293 293 293 292 292 292 291 291 291 290 290 289 289
258 266 273 279 282 282 281 281 282 283 285 287 288 289 289 290 291 291 291 290 291 291 292 292 293 293 293 292 292 293 294 296 298 299 300 300 300 301 301 301 301 301 300 299 297 296 295 295 294 294 294 293 293 293 293 293 293 293 293 293 293 293 293 293 293 293 293 293 293 293 293 293 293 292 292 292 292 291 291 291 291 290 290 290 289 289
262 271 281 288 290 289 288 288 290 292 293 294 294 294 293 294 294 294 293 292 293 293 293 293 293 293 293 293 293 295 298 300 301 302 302 301 301 301 301 302 302 301 300 300 299 298 297 297 296 296 296 295 295 294 294 294 294 294 293 293 293 293 293 293 292 292 292 292 292 292 291 291 291 291 291 291 290 290 290 290 290 290 290 289 289 289
275 284 293 297 296 295 294 294 296 297 296 295 295 295 295 295 294 293 293 292 292 293 293 293 294 294 295 296 297 299 302 303 304 303 302 302 302 302 303 303 303 302 302 301 301 300 300 299 299 298 298 297 297 296 296 295 295 295 294 294 294 293 293 293 292 292 292 291 291 291 291 290 290 290 290 290 290 290 290 290 289 289 289 289 289 289
291 296 299 297 296 295 294 294 295 295 295 295 294 294 294 293 293 292 292 291 291 292 293 294 296 297 299 299 301 303 305 306 305 305 304 303 303 304 304 304 304 304 303 303 302 302 302 301 301 300 300 299 298 298 298 297 297 296 296 295 294 294 293 293 293 292 292 292 291 291 291 290 290 290 290 290 289 289 289 289 289 289 288 288 288 288
294 294 293 293 293 293 293 294 294 294 294 293 293 293 292 291 291 291 291 291 291 293 294 296 298 301 302 303 304 305 307 307 306 306 305 304 304 305 305 306 305 305 304 304 304 303 303 302 302 302 301 301 300 300 299 298 298 297 296 296 295 295 294 294 293 293 292 292 292 291 291 291 290 290 290 290 290 289 289 289 288 288 288 287 287 287
289 289 289 291 292 292 292 293 293 293 292 291 290 291 291 291 290 290 290 291 293 295 297 299 301 302 303 304 304 305 306 307 306 306 306 305 305 306 307 307 306 306 305 305 305 304 304 303 303 302 302 301 301 300 300 299 298 298 297 297 296 296 295 295 294 294 293 293 292 292 292 291 291 291 290 290 290 289 289 289 288 288 287 287 287 286
288 288 289 289 290 290 290 290 290 289 289 288 288 288 288 289 289 289 290 292 295 297 300 301 302 302 303 303 304 305 306 306 307 307 307 307 307 307 308 308 307 307 306 306 305 305 304 304 303 303 302 302 301 301 300 300 299 299 298 298 297 297 296 296 295 295 294 294 293 293 292 292 292 291 291 291 290 290 290 289 289 289 288 288 288 287
288 288 288 288 288 288 288 288 288 287 287 287 287 287 286 287 288 290 292 295 297 299 301 302 302 303 303 304 305 306 307 307 308 308 308 308 308 308 308 308 308 307 307 306 306 305 305 304 303 303 303 302 302 302 301 301 300 300 299 299 298 298 297 297 296 295 295 294 294 294 293 293 293 292 292 292 292 291 291 291 290 290 290 289 289 289
286 286 286 286 286 285 285 285 285 285 285 285 285 286 287 288 291 294 296 299 301 302 303 303 304 304 305 306 307 308 308 308 309 309 309 309 308 309 309 308 308 307 307 306 306 306 305 304 304 304 304 303 303 303 303 302 301 301 300 299 299 298 298 297 297 296 296 295 295 294 294 294 294 293 293 293 293 292 292 292 291 291 291 290 290 289
283 283 283 283 282 281 281 281 281 281 282 282 284 286 289 292 295 298 300 302 303 305 306 306 307 307 307 308 309 309 309 309 310 309 309 309 309 309 309 309 308 308 308 307 307 307 306 306 306 305 305 305 305 304 304 303 302 301 301 300 299 299 298 297 297 296 296 296 295 295 295 295 294 294 294 294 293 293 293 292 292 292 291 291 290 289
279 278 278 278 277 277 277 278 278 278 280 282 286 289 292 295 298 301 302 304 306 307 308 308 308 309 309 310 310 311 311 311 311 311 311 310 310 310 310 310 310 309 309 309 309 308 308 308 307 307 307 306 306 305 304 304 303 302 301 300 299 299 298 297 297 296 296 295 295 295 295 295 294 294 294 294 294 293 293 293 292 292 291 290 290 289
275 274 274 273 273 274 275 276 278 280 283 286 290 293 296 299 302 304 306 307 308 309 310 310 310 311 311 312 312 313 313 313 313 312 312 311 311 311 311 311 311 311 311 311 311 310 310 309 308 308 308 307 306 306 305 304 303 301 300 300 299 298 297 297 296 296 295 295 295 295 294 294 294 294 294 294 294 293 293 293 292 291 291 290 289 287
274 273 273 273 274 276 278 281 284 287 291 294 298 301 303 305 307 308 309 310 310 311 312 312 313 313 313 314 314 315 315 315 314 314 313 313 313 313 313 313 313 313 313 312 312 311 311 310 309 309 308 307 306 305 304 303 302 301 300 299 298 297 297 296 295 295 295 295 294 294 294 294 294 294 294 294 294 294 293 293 292 291 290 289 288 286
278 278 279 280 282 285 288 291 294 297 300 303 305 307 309 310 311 311 311 312 312 313 314 315 315 315 315 315 315 316 316 315 315 315 314 314 314 314 314 314 314 314 314 313 313 312 311 310 309 308 308 307 306 305 304 302 301 300 299 298 298 297 296 296 295 295 295 295 294 294 294 294 294 294 294 294 294 294 294 293 292 292 291 290 288 287
287 288 290 292 294 297 299 301 303 305 307 308 310 311 312 312 313 313 314 314 314 315 315 316 316 316 316 316 316 316 316 316 315 315 315 315 315 315 315 315 315 315 315 314 313 312 311 310 309 308 307 307 306 305 304 302 301 300 300 299 298 298 297 297 296 296 295 295 295 295 294 294 294 294 295 295 295 295 295 294 294 293 293 292 290 289
297 299 301 303 304 305 307 308 309 310 312 313 313 313 313 314 315 315 315 315 316 316 316 316 316 316 316 316 316 316 316 316 316 316 316 316 316 315 316 316 316 315 315 314 313 312 311 310 309 309 308 308 307 306 305 304 303 302 301 301 300 299 299 298 298 297 296 296 296 295 295 295 295 295 295 295 296 296 296 297 297 296 296 295 293 292
305 307 308 310 311 312 313 313 314 314 315 315 314 314 314 314 315 316 316 316 317 317 317 317 317 317 316 316 316 317 317 317 317 316 316 316 316 316 317 316 316 316 315 315 314 314 313 312 312 312 311 310 310 309 308 307 306 305 305 304 303 302 301 300 299 298 298 297 296 296 295 295 295 295 296 297 297 298 299 299 299 299 299 298 297 295
311 313 314 314 314 315 315 315 314 314 314 314 314 313 314 314 316 316 317 318 318 318 318 318 318 317 317 317 317 317 317 317 318 318 318 318 318 318 318 318 317 317 318 317 317 317 317 317 317 316 316 315 314 314 313 312 311 310 309 308 307 306 304 303 301 300 299 298 297 297 296 296 296 297 297 298 299 300 301 302 302 302 302 301 300 299
315 316 315 314 314 313 313 313 312 313 312 313 313 314 315 316 317 318 319 319 319 320 319 319 319 319 318 318 318 318 319 319 319 319 320 320 320 320 320 321 321 322 323 323 324 324 324 323 322 322 321 321 320 319 319 318 317 316 315 313 311 310 308 306 304 303 302 300 300 299 298 298 298 298 299 300 301 301 302 303 303 303 304 303 303 302
317 315 314 314 313 313 312 312 313 313 314 315 316 317 318 320 320 321 321 321 321 321 321 320 320 320 320 320 320 320 321 321 322 322 322 322 322 323 325 326 327 328 330 330 330 330 329 329 328 327 327 326 326 325 325 324 323 322 321 319 317 315 313 311 309 307 306 304 303 302 301 301 301 300 301 301 301 302 302 302 303 303 304 304 304 303
319 318 317 316 315 315 315 316 317 318 319 320 321 322 322 323 323 323 323 323 323 322 322 322 321 321 322 322 323 323 324 324 324 325 325 326 327 329 332 333 335 335 335 335 334 334 333 333 333 332 332 332 331 330 329 329 328 327 326 324 323 321 319 317 315 313 311 310 308 307 305 304 303 303 302 302 302 301 301 301 302 302 302 303 303 303
323 321 321 320 320 320 321 321 322 323 324 325 325 326 326 326 325 325 325 325 324 324 323 323 323 324 324 325 326 326 327 327 328 328 330 332 335 337 340 340 340 339 338 337 337 336 336 336 336 337 337 336 335 334 333 333 332 331 330 329 328 327 325 324 322 320 318 316 314 311 310 308 306 305 304 303 302 301 301 300 300 300 301 301 301 302
327 326 325 325 325 325 326 326 327 327 328 328 328 328 328 327 327 327 326 326 325 325 325 326 326 327 328 328 329 329 330 331 332 334 337 340 343 344 345 344 343 341 341 340 340 340 340 340 341 341 341 340 339 338 337 337 336 336 335 334 334 333 332 331 330 328 326 323 320 318 315 312 310 308 306 304 302 301 300 300 299 299 299 299 300 300
330 330 329 329 329 329 329 330 330 330 330 330 330 330 329 328 328 327 327 327 327 327 328 329 329 330 331 331 332 333 334 335 338 341 345 348 348 348 347 346 345 345 345 345 345 345 345 345 345 345 344 344 343 343 342 342 341 341 341 340 340 340 339 338 337 336 333 331 328 325 322 318 315 312 308 306 303 302 300 300 299 299 298 298 298 297
333 332 332 332 331 331 332 332 332 332 332 331 331 330 330 329 328 328 328 329 329 330 331 332 332 333 333 334 335 336 338 342 346 349 351 351 350 349 348 348 349 349 350 350 351 351 350 350 350 349 349 348 348 348 348 348 347 347 347 347 347 347 347 346 345 344 342 340 338 335 331 327 323 318 314 310 306 304 302 300 299 298 297 296 296 295
335 334 334 333 333 333 333 333 333 333 332 332 331 330 330 329 330 330 331 331 333 334 334 335 335 336 336 337 339 341 345 349 353 355 354 353 352 351 351 352 353 354 355 355 356 356 356 356 356 355 354 354 354 355 355 355 355 355 355 356 356 356 356 355 354 353 351 350 347 345 342 339 334 329 323 317 312 308 305 302 300 298 297 296 295 294
336 336 335 335 335 335 334 334 334 333 332 332 331 331 331 331 332 333 334 335 336 337 337 338 338 339 340 342 345 349 353 356 357 356 355 354 354 355 355 356 356 357 358 359 0 1 2 2 3 3 2 2 3 4 5 5 4 4 5 6 7 7 6 5 4 3 1 360 358 357 354 351 348 342 336 329 322 316 311 308 304 302 301 300 299 298
339 338 338 337 336 336 335 334 333 333 332 332 332 332 333 334 335 337 337 338 339 339 340 340 341 342 345 348 352 356 358 359 358 357 357 357 358 359 359 359 359 359 0 2 4 5 7 8 10 11 11 12 13 14 15 16 15 15 15 15 16 16 16 16 15 14 13 12 10 9 8 6 3 358 353 346 339 332 326 321 318 315 313 311 310 309
342 341 340 339 337 336 335 334 333 333 333 333 334 335 337 338 339 340 341 341 342 342 342 343 345 348 351 356 359 0 0 359 358 359 360 1 2 2 2 1 1 1 2 4 6 9 11 13 15 17 19 20 22 24 25 25 26 26 26 26 25 26 27 28 28 27 27 26 25 24 22 21 18 15 11 6 1 355 350 345 341 337 334 331 329 327
344 342 340 339 337 335 334 334 333 333 334 336 338 340 341 342 343 344 344 344 345 345 346 348 351 354 358 1 2 1 0 360 0 2 4 4 5 5 4 4 4 4 4 6 9 12 15 18 20 22 24 26 28 29 31 32 33 34 34 35 35 35 36 36 37 38 37 37 37 36 35 34 32 30 28 25 21 18 14 10 5 1 357 353 351 349
343 340 338 337 335 334 334 334 335 336 338 341 342 344 345 346 346 347 347 347 348 349 351 354 357 360 2 2 2 2 1 2 3 5 6 7 7 7 7 7 7 7 7 8 11 14 18 21 24 26 28 30 32 33 35 36 38 39 40 41 41 42 42 42 43 44 44 44 44 44 44 43 42 41 40 38 36 35 33 30 27 23 19 16 12 10
340 338 337 336 335 335 335 337 339 341 344 345 347 348 348 349 349 349 349 350 351 353 356 360 2 3 3 3 4 4 4 4 5 7 8 9 9 9 9 10 10 10 10 11 13 16 19 23 25 28 30 32 34 36 37 39 40 41 42 43 44 45 45 46 47 47 47 48 48 48 48 48 48 47 46 45 45 44 43 42 40 38 36 34 31 27
339 338 337 337 337 338 340 342 345 347 349 350 351 351 351 352 352 352 352 354 356 359 3 5 6 6 6 7 7 6 5 6 6 8 9 10 11 12 13 13 13 13 14 15 16 18 21 23 26 29 31 33 35 36 38 40 41 42 43 44 45 46 46 47 48 48 49 49 49 50 50 50 50 50 49 49 48 48 48 47 46 46 45 43 42 40
341 340 340 341 342 344 346 348 350 352 353 354 354 354 354 354 354 355 356 359 2 5 8 9 10 10 11 11 10 8 6 6 6 8 9 11 13 15 16 16 17 17 17 18 19 21 23 25 27 29 31 33 35 37 38 40 41 42 43 44 45 46 46 47 48 48 49 49 49 50 50 50 50 50 50 50 50 49 49 49 49 48 48 48 47 46
345 345 346 347 349 351 352 354 355 356 357 357 356 356 356 356 357 359 2 5 8 10 11 12 13 14 15 14 12 9 7 6 6 7 9 11 14 16 18 19 20 21 21 22 22 24 25 27 28 30 32 34 36 37 38 40 41 42 43 44 44 45 46 47 47 48 48 48 49 49 49 49 50 50 50 50 50 49 49 50 50 50 50 49 49 48
350 351 353 354 355 357 358 359 359 360 359 359 358 358 359 0 3 5 8 11 13 14 14 15 17 18 18 15 12 10 8 7 7 7 9 11 14 17 19 21 23 24 25 25 26 27 28 29 30 32 33 35 36 38 39 40 41 42 42 43 44 45 46 46 46 47 47 48 48 48 48 48 49 49 49 49 49 49 49 49 49 50 50 50 50 50
357 358 359 0 2 2 3 3 3 2 1 0 0 1 3 5 9 12 14 16 16 17 18 19 21 21 19 16 13 10 9 8 8 9 11 13 15 18 20 22 24 26 27 28 29 30 31 32 32 33 35 36 37 39 40 40 41 42 43 43 44 45 45 46 46 46 47 47 47 47 48 48 48 48 48 48 48 48 48 48 49 49 49 50 50 50
3 4 5 6 7 8 7 6 5 3 2 2 3 6 9 12 15 17 19 19 20 20 21 23 23 22 19 16 13 11 10 10 10 11 13 15 17 19 21 24 26 27 29 30 31 33 34 35 35 36 37 38 39 40 41 42 43 43 43 44 44 45 46 46 46 47 47 47 47 47 48 47 47 47 47 47 48 48 48 48 48 48 48 48 49 49
9 10 11 11 11 11 10 8 6 5 5 6 9 12 15 17 19 21 21 22 22 23 24 25 24 21 18 15 14 12 12 12 13 15 17 19 21 23 25 27 29 31 32 33 35 36 37 38 39 39 40 41 42 43 44 44 45 45 45 45 46 46 47 47 47 47 48 48 48 48 48 48 48 48 48 48 48 48 48 48 48 48 48 48 48 49